Year,Month,Day,Hour,Minute,Value (Times are PST for barometer in hPa)
2022,04,28,00,00,993.60
2022,04,28,00,01,993.60
2022,04,28,00,02,993.60
2022,04,28,00,03,993.60
2022,04,28,00,04,993.60
2022,04,28,00,05,993.60
2022,04,28,00,06,993.60
2022,04,28,00,07,986.47
2022,04,28,00,08,985.68
2022,04,28,00,09,985.68
2022,04,28,00,10,985.68
2022,04,28,00,11,985.68
2022,04,28,00,12,981.88
2022,04,28,00,13,981.21
2022,04,28,00,14,979.51
2022,04,28,00,15,979.21
2022,04,28,00,16,979.21
2022,04,28,00,17,979.21
2022,04,28,00,18,980.33
2022,04,28,00,19,980.53
2022,04,28,00,20,980.53
2022,04,28,00,21,980.76
2022,04,28,00,22,980.89
2022,04,28,00,23,980.90
2022,04,28,00,24,980.90
2022,04,28,00,25,980.90
2022,04,28,00,26,980.90
2022,04,28,00,27,980.90
2022,04,28,00,28,980.90
2022,04,28,00,29,980.90
2022,04,28,00,30,980.90
2022,04,28,00,31,980.90
2022,04,28,00,32,983.58
2022,04,28,00,33,984.05
2022,04,28,00,34,984.05
2022,04,28,00,35,984.05
2022,04,28,00,36,984.05
2022,04,28,00,37,984.05
2022,04,28,00,38,984.14
2022,04,28,00,39,984.15
2022,04,28,00,40,984.15
2022,04,28,00,41,984.15
2022,04,28,00,42,984.15
2022,04,28,00,43,984.15
2022,04,28,00,44,984.15
2022,04,28,00,45,984.15
2022,04,28,00,46,983.96
2022,04,28,00,47,983.92
2022,04,28,00,48,982.24
2022,04,28,00,49,982.15
2022,04,28,00,50,982.19
2022,04,28,00,51,984.84
2022,04,28,00,52,985.34
2022,04,28,00,53,985.34
2022,04,28,00,54,981.51
2022,04,28,00,55,980.83
2022,04,28,00,56,980.83
2022,04,28,00,57,980.83
2022,04,28,00,58,980.83
2022,04,28,00,59,980.83
2022,04,28,01,00,983.11
2022,04,28,01,01,983.51
2022,04,28,01,02,983.51
2022,04,28,01,03,983.51
2022,04,28,01,04,983.51
2022,04,28,01,05,983.51
2022,04,28,01,06,983.51
2022,04,28,01,07,983.51
2022,04,28,01,08,983.51
2022,04,28,01,09,983.51
2022,04,28,01,10,983.51
2022,04,28,01,11,983.51
2022,04,28,01,12,983.51
2022,04,28,01,13,983.51
2022,04,28,01,14,983.51
2022,04,28,01,15,983.51
2022,04,28,01,16,983.51
2022,04,28,01,17,983.51
2022,04,28,01,18,983.51
2022,04,28,01,19,983.51
2022,04,28,01,20,983.51
2022,04,28,01,21,983.51
2022,04,28,01,22,983.51
2022,04,28,01,23,983.51
2022,04,28,01,24,983.51
2022,04,28,01,25,983.51
2022,04,28,01,26,983.51
2022,04,28,01,27,983.51
2022,04,28,01,28,983.51
2022,04,28,01,29,983.51
2022,04,28,01,30,983.51
2022,04,28,01,31,983.51
2022,04,28,01,32,983.51
2022,04,28,01,33,983.51
2022,04,28,01,34,983.51
2022,04,28,01,35,983.51
2022,04,28,01,36,983.51
2022,04,28,01,37,983.51
2022,04,28,01,38,993.77
2022,04,28,01,39,996.34
2022,04,28,01,40,996.34
2022,04,28,01,41,1000.40
2022,04,28,01,42,1001.12
2022,04,28,01,43,998.82
2022,04,28,01,44,998.24
2022,04,28,01,45,1000.07
2022,04,28,01,46,1000.41
2022,04,28,01,47,1000.41
2022,04,28,01,48,1000.41
2022,04,28,01,49,1000.41
2022,04,28,01,50,1000.41
2022,04,28,01,51,1000.41
2022,04,28,01,52,1000.41
2022,04,28,01,53,1000.41
2022,04,28,01,54,1000.41
2022,04,28,01,55,1000.41
2022,04,28,01,56,999.46
2022,04,28,01,57,999.22
2022,04,28,01,58,999.22
2022,04,28,01,59,999.22
2022,04,28,02,00,999.22
2022,04,28,02,01,999.22
2022,04,28,02,02,1000.76
2022,04,28,02,03,1001.05
2022,04,28,02,04,1001.05
2022,04,28,02,05,1001.05
2022,04,28,02,06,1001.05
2022,04,28,02,07,1001.05
2022,04,28,02,08,1001.05
2022,04,28,02,09,1001.05
2022,04,28,02,10,1001.05
2022,04,28,02,11,1001.05
2022,04,28,02,12,1001.05
2022,04,28,02,13,1003.79
2022,04,28,02,14,1004.47
2022,04,28,02,15,1004.47
2022,04,28,02,16,1004.47
2022,04,28,02,17,1004.47
2022,04,28,02,18,1004.47
2022,04,28,02,19,1004.47
2022,04,28,02,20,1004.47
2022,04,28,02,21,1004.47
2022,04,28,02,22,1004.47
2022,04,28,02,23,1004.47
2022,04,28,02,24,1003.63
2022,04,28,02,25,1003.42
2022,04,28,02,26,1003.42
2022,04,28,02,27,1003.42
2022,04,28,02,28,1003.42
2022,04,28,02,29,1003.42
2022,04,28,02,30,1003.42
2022,04,28,02,31,1003.42
2022,04,28,02,32,1003.42
2022,04,28,02,33,1003.42
2022,04,28,02,34,1003.42
2022,04,28,02,35,1003.42
2022,04,28,02,36,1005.40
2022,04,28,02,37,1006.44
2022,04,28,02,38,1006.21
2022,04,28,02,39,1006.13
2022,04,28,02,40,1004.07
2022,04,28,02,41,1003.56
2022,04,28,02,42,1003.56
2022,04,28,02,43,1003.56
2022,04,28,02,44,998.19
2022,04,28,02,45,997.34
2022,04,28,02,46,997.46
2022,04,28,02,47,995.32
2022,04,28,02,48,994.92
2022,04,28,02,49,994.92
2022,04,28,02,50,994.92
2022,04,28,02,51,994.92
2022,04,28,02,52,994.92
2022,04,28,02,53,1001.34
2022,04,28,02,54,1002.52
2022,04,28,02,55,1002.44
2022,04,28,02,56,1002.44
2022,04,28,02,57,1002.44
2022,04,28,02,58,1000.46
2022,04,28,02,59,999.97
2022,04,28,03,00,999.97
2022,04,28,03,01,999.97
2022,04,28,03,02,999.97
2022,04,28,03,06,1002.10
2022,04,28,03,07,1002.10
2022,04,28,03,08,1002.10
2022,04,28,03,09,1002.10
2022,04,28,03,10,1002.10
2022,04,28,03,11,1002.10
2022,04,28,03,12,1002.10
2022,04,28,03,13,1002.10
2022,04,28,03,14,1000.81
2022,04,28,03,15,1001.15
2022,04,28,03,16,1001.15
2022,04,28,03,17,1001.15
2022,04,28,03,18,1001.15
2022,04,28,03,19,1001.15
2022,04,28,03,20,1001.15
2022,04,28,03,21,1001.12
2022,04,28,03,22,1001.12
2022,04,28,03,23,1001.12
2022,04,28,03,24,1001.12
2022,04,28,03,25,1001.12
2022,04,28,03,26,1001.12
2022,04,28,03,27,1001.12
2022,04,28,03,28,1001.12
2022,04,28,03,29,1001.12
2022,04,28,03,30,1001.12
2022,04,28,03,31,1001.12
2022,04,28,03,32,1001.12
2022,04,28,03,33,1003.66
2022,04,28,03,34,1003.79
2022,04,28,03,35,1003.79
2022,04,28,03,36,1003.79
2022,04,28,03,37,1003.79
2022,04,28,03,38,1003.79
2022,04,28,03,39,1003.79
2022,04,28,03,40,1000.61
2022,04,28,03,41,1000.61
2022,04,28,03,42,1000.61
2022,04,28,03,43,1000.61
2022,04,28,03,44,1000.61
2022,04,28,03,45,1000.61
2022,04,28,03,46,1000.61
2022,04,28,03,47,1002.79
2022,04,28,03,48,1002.91
2022,04,28,03,49,1007.13
2022,04,28,03,50,1007.35
2022,04,28,03,51,1007.35
2022,04,28,03,52,1004.38
2022,04,28,03,53,1004.23
2022,04,28,03,54,1004.23
2022,04,28,03,55,1004.23
2022,04,28,03,56,1004.23
2022,04,28,03,57,1004.23
2022,04,28,03,58,1004.36
2022,04,28,03,59,1004.37
2022,04,28,04,00,1004.37
2022,04,28,04,01,1004.37
2022,04,28,04,02,1004.37
2022,04,28,04,03,1004.37
2022,04,28,04,04,1004.37
2022,04,28,04,05,1004.37
2022,04,28,04,06,1004.37
2022,04,28,04,07,1004.30
2022,04,28,04,08,1004.30
2022,04,28,04,09,1004.30
2022,04,28,04,10,1004.30
2022,04,28,04,11,1004.30
2022,04,28,04,12,1004.30
2022,04,28,04,13,1004.30
2022,04,28,04,14,1001.59
2022,04,28,04,15,1001.59
2022,04,28,04,16,1003.37
2022,04,28,04,17,1003.46
2022,04,28,04,18,1005.67
2022,04,28,04,19,1005.79
2022,04,28,04,20,1005.79
2022,04,28,04,21,1005.79
2022,04,28,04,22,1005.79
2022,04,28,04,23,1005.79
2022,04,28,04,24,1005.79
2022,04,28,04,25,1005.79
2022,04,28,04,26,1005.79
2022,04,28,04,27,1005.79
2022,04,28,04,28,1005.79
2022,04,28,04,29,1005.79
2022,04,28,04,30,1005.79
2022,04,28,04,31,1003.29
2022,04,28,04,32,1003.29
2022,04,28,04,33,1003.29
2022,04,28,04,34,1003.29
2022,04,28,04,35,1003.29
2022,04,28,04,36,1003.29
2022,04,28,04,37,1003.29
2022,04,28,04,38,1003.29
2022,04,28,04,39,1000.24
2022,04,28,04,40,999.66
2022,04,28,04,41,999.63
2022,04,28,04,42,999.63
2022,04,28,04,43,999.63
2022,04,28,04,44,999.63
2022,04,28,04,45,999.86
2022,04,28,04,46,999.87
2022,04,28,04,47,999.87
2022,04,28,04,48,999.87
2022,04,28,04,49,999.87
2022,04,28,04,50,999.87
2022,04,28,04,51,999.87
2022,04,28,04,52,999.87
2022,04,28,04,53,999.87
2022,04,28,04,54,999.87
2022,04,28,04,55,999.87
2022,04,28,04,56,999.87
2022,04,28,04,57,999.87
2022,04,28,04,58,999.87
2022,04,28,04,59,999.87
2022,04,28,05,00,998.88
2022,04,28,05,01,998.78
2022,04,28,05,02,998.78
2022,04,28,05,03,998.78
2022,04,28,05,04,998.78
2022,04,28,05,05,998.78
2022,04,28,05,06,998.78
2022,04,28,05,07,998.78
2022,04,28,05,08,998.78
2022,04,28,05,09,998.78
2022,04,28,05,10,998.78
2022,04,28,05,11,1003.54
2022,04,28,05,12,1003.99
2022,04,28,05,13,1004.00
2022,04,28,05,14,1004.00
2022,04,28,05,15,1004.00
2022,04,28,05,16,1004.00
2022,04,28,05,17,1004.00
2022,04,28,05,18,1001.34
2022,04,28,05,19,1001.19
2022,04,28,05,20,1001.19
2022,04,28,05,21,1001.19
2022,04,28,05,22,1001.19
2022,04,28,05,23,1001.19
2022,04,28,05,24,1003.73
2022,04,28,05,25,1003.73
2022,04,28,05,26,1003.73
2022,04,28,05,27,1003.73
2022,04,28,05,28,1003.73
2022,04,28,05,29,1003.73
2022,04,28,05,30,1002.79
2022,04,28,05,31,1002.74
2022,04,28,05,32,1002.74
2022,04,28,05,33,1002.74
2022,04,28,05,34,1003.52
2022,04,28,05,35,1003.56
2022,04,28,05,36,1002.50
2022,04,28,05,37,1002.44
2022,04,28,05,38,1002.44
2022,04,28,05,39,1005.08
2022,04,28,05,40,1005.22
2022,04,28,05,41,1005.22
2022,04,28,05,42,1005.22
2022,04,28,05,43,1003.70
2022,04,28,05,44,1003.62
2022,04,28,05,45,1003.62
2022,04,28,05,46,1003.62
2022,04,28,05,47,1005.58
2022,04,28,05,48,1005.69
2022,04,28,05,49,1005.69
2022,04,28,05,50,1005.69
2022,04,28,05,51,1005.69
2022,04,28,05,52,1005.69
2022,04,28,05,53,1005.69
2022,04,28,05,54,1004.46
2022,04,28,05,55,1004.40
2022,04,28,05,56,1004.40
2022,04,28,05,57,1004.40
2022,04,28,05,58,1004.40
2022,04,28,05,59,1004.40
2022,04,28,06,00,1004.40
2022,04,28,06,01,1004.40
2022,04,28,06,02,1004.40
2022,04,28,06,03,1004.40
2022,04,28,06,04,1004.40
2022,04,28,06,05,1004.40
2022,04,28,06,06,1004.40
2022,04,28,06,07,1006.91
2022,04,28,06,08,1007.04
2022,04,28,06,09,1007.04
2022,04,28,06,10,1007.04
2022,04,28,06,11,1007.04
2022,04,28,06,12,1007.04
2022,04,28,06,13,1007.04
2022,04,28,06,14,1007.04
2022,04,28,06,15,1007.04
2022,04,28,06,16,1007.04
2022,04,28,06,17,1007.04
2022,04,28,06,18,1007.04
2022,04,28,06,19,1007.04
2022,04,28,06,20,1007.04
2022,04,28,06,21,1007.04
2022,04,28,06,22,1007.04
2022,04,28,06,23,1009.81
2022,04,28,06,24,1009.96
2022,04,28,06,25,1011.17
2022,04,28,06,26,1011.24
2022,04,28,06,27,1011.24
2022,04,28,06,28,1013.07
2022,04,28,06,29,1013.17
2022,04,28,06,30,1013.17
2022,04,28,06,31,1013.56
2022,04,28,06,32,1013.58
2022,04,28,06,33,1013.58
2022,04,28,06,34,1013.58
2022,04,28,06,35,1013.58
2022,04,28,06,36,1013.58
2022,04,28,06,37,1013.58
2022,04,28,06,38,1013.58
2022,04,28,06,39,1013.58
2022,04,28,06,40,1013.58
2022,04,28,06,41,1005.88
2022,04,28,06,42,1005.45
2022,04,28,06,43,1005.45
2022,04,28,06,44,1005.45
2022,04,28,06,45,1005.45
2022,04,28,06,46,1005.45
2022,04,28,06,47,1005.45
2022,04,28,06,48,1005.45
2022,04,28,06,49,1005.45
2022,04,28,06,50,1005.45
2022,04,28,06,51,1005.45
2022,04,28,06,52,1005.45
2022,04,28,06,53,1005.45
2022,04,28,06,54,1005.45
2022,04,28,06,55,1004.20
2022,04,28,06,56,1004.13
2022,04,28,06,57,1004.13
2022,04,28,06,58,1004.13
2022,04,28,06,59,1004.13
2022,04,28,07,00,1004.13
2022,04,28,07,01,1004.13
2022,04,28,07,02,1004.13
2022,04,28,07,03,1004.13
2022,04,28,07,04,1004.13
2022,04,28,07,05,1004.13
2022,04,28,07,06,996.67
2022,04,28,07,07,995.84
2022,04,28,07,08,995.84
2022,04,28,07,09,995.84
2022,04,28,07,10,995.84
2022,04,28,07,11,995.84
2022,04,28,07,12,991.14
2022,04,28,07,13,990.62
2022,04,28,07,14,990.62
2022,04,28,07,15,990.62
2022,04,28,07,16,990.62
2022,04,28,07,17,990.62
2022,04,28,07,18,990.62
2022,04,28,07,19,990.62
2022,04,28,07,20,990.62
2022,04,28,07,21,990.62
2022,04,28,07,22,990.62
2022,04,28,07,23,990.62
2022,04,28,07,24,990.62
2022,04,28,07,25,990.62
2022,04,28,07,26,990.62
2022,04,28,07,27,993.93
2022,04,28,07,28,994.11
2022,04,28,07,29,994.11
2022,04,28,07,30,994.11
2022,04,28,07,31,994.11
2022,04,28,07,32,994.11
2022,04,28,07,33,994.11
2022,04,28,07,34,994.11
2022,04,28,07,35,994.11
2022,04,28,07,36,994.11
2022,04,28,07,37,994.11
2022,04,28,07,38,994.11
2022,04,28,07,39,994.11
2022,04,28,07,40,994.11
2022,04,28,07,41,992.89
2022,04,28,07,42,992.75
2022,04,28,07,43,992.75
2022,04,28,07,44,992.75
2022,04,28,07,45,992.75
2022,04,28,07,46,992.75
2022,04,28,07,47,985.13
2022,04,28,07,48,984.73
2022,04,28,07,49,984.73
2022,04,28,07,50,984.73
2022,04,28,07,51,998.70
2022,04,28,07,52,999.43
2022,04,28,07,53,999.43
2022,04,28,07,54,998.39
2022,04,28,07,55,998.34
2022,04,28,07,56,998.34
2022,04,28,07,57,998.34
2022,04,28,07,58,998.34
2022,04,28,07,59,996.09
2022,04,28,08,00,995.97
2022,04,28,08,01,995.97
2022,04,28,08,02,995.97
2022,04,28,08,03,995.97
2022,04,28,08,04,995.97
2022,04,28,08,05,995.97
2022,04,28,08,06,995.97
2022,04,28,08,07,995.97
2022,04,28,08,08,995.97
2022,04,28,08,09,995.97
2022,04,28,08,10,995.97
2022,04,28,08,11,980.28
2022,04,28,08,12,979.41
2022,04,28,08,13,979.41
2022,04,28,08,14,979.41
2022,04,28,08,15,979.41
2022,04,28,08,16,979.41
2022,04,28,08,17,979.41
2022,04,28,08,18,979.41
2022,04,28,08,19,981.74
2022,04,28,08,20,981.99
2022,04,28,08,21,981.99
2022,04,28,08,22,981.99
2022,04,28,08,23,981.99
2022,04,28,08,24,981.99
2022,04,28,08,25,981.99
2022,04,28,08,26,981.99
2022,04,28,08,27,945.99
2022,04,28,08,28,941.99
2022,04,28,08,29,941.99
2022,04,28,08,30,941.99
2022,04,28,08,31,941.99
2022,04,28,08,32,941.99
2022,04,28,08,33,941.99
2022,04,28,08,34,941.99
2022,04,28,08,35,941.99
2022,04,28,08,36,941.99
2022,04,28,08,37,941.99
2022,04,28,08,38,941.99
2022,04,28,08,39,941.99
2022,04,28,08,40,941.99
2022,04,28,08,41,941.99
2022,04,28,08,42,941.99
2022,04,28,08,43,941.99
2022,04,28,08,44,941.99
2022,04,28,08,45,941.99
2022,04,28,08,46,941.99
2022,04,28,08,47,941.99
2022,04,28,08,48,941.99
2022,04,28,08,49,941.99
2022,04,28,08,50,941.99
2022,04,28,08,51,941.99
2022,04,28,08,52,941.99
2022,04,28,08,53,941.99
2022,04,28,08,54,941.99
2022,04,28,08,55,941.99
2022,04,28,08,56,941.99
2022,04,28,08,57,941.99
2022,04,28,08,58,941.99
2022,04,28,08,59,941.99
2022,04,28,09,00,941.99
2022,04,28,09,01,941.99
2022,04,28,09,02,941.99
2022,04,28,09,03,941.99
2022,04,28,09,04,941.99
2022,04,28,09,05,941.99
2022,04,28,09,06,941.99
2022,04,28,09,07,941.99
2022,04,28,09,08,941.99
2022,04,28,09,09,941.99
2022,04,28,09,10,941.99
2022,04,28,09,11,941.99
2022,04,28,09,12,941.99
2022,04,28,09,13,941.99
2022,04,28,09,14,941.99
2022,04,28,09,15,941.99
2022,04,28,09,16,941.99
2022,04,28,09,17,941.99
2022,04,28,09,18,941.99
2022,04,28,09,19,941.99
2022,04,28,09,20,941.99
2022,04,28,09,21,941.99
2022,04,28,09,22,941.99
2022,04,28,09,23,941.99
2022,04,28,09,24,941.99
2022,04,28,09,25,941.99
2022,04,28,09,26,941.99
2022,04,28,09,27,941.99
2022,04,28,09,28,941.99
2022,04,28,09,29,941.99
2022,04,28,09,30,941.99
2022,04,28,09,31,941.99
2022,04,28,09,32,941.99
2022,04,28,09,33,941.99
2022,04,28,09,34,941.99
2022,04,28,09,35,941.99
2022,04,28,09,36,941.99
2022,04,28,09,37,941.99
2022,04,28,09,38,941.99
2022,04,28,09,39,941.99
2022,04,28,09,40,941.99
2022,04,28,09,41,941.99
2022,04,28,09,42,941.99
2022,04,28,09,43,941.99
2022,04,28,09,44,941.99
2022,04,28,09,45,941.99
2022,04,28,09,46,941.99
2022,04,28,09,47,941.99
2022,04,28,09,48,941.99
2022,04,28,09,49,941.99
2022,04,28,09,50,941.99
2022,04,28,09,51,941.99
2022,04,28,09,52,941.99
2022,04,28,09,53,941.99
2022,04,28,09,54,941.99
2022,04,28,09,55,941.99
2022,04,28,09,56,941.99
2022,04,28,09,57,941.99
2022,04,28,09,58,941.99
2022,04,28,09,59,941.99
2022,04,28,10,00,941.99
2022,04,28,10,01,941.99
2022,04,28,10,02,941.99
2022,04,28,10,03,941.99
2022,04,28,10,04,941.99
2022,04,28,10,05,941.99
2022,04,28,10,06,941.99
2022,04,28,10,07,941.99
2022,04,28,10,08,941.99
2022,04,28,10,09,941.99
2022,04,28,10,10,941.99
2022,04,28,10,11,941.99
2022,04,28,10,12,941.99
2022,04,28,10,13,941.99
2022,04,28,10,14,941.99
2022,04,28,10,15,941.99
2022,04,28,10,16,941.99
2022,04,28,10,17,941.99
2022,04,28,10,18,941.99
2022,04,28,10,19,941.99
2022,04,28,10,20,941.99
2022,04,28,10,21,941.99
2022,04,28,10,22,941.99
2022,04,28,10,23,941.99
2022,04,28,10,24,941.99
2022,04,28,10,25,941.99
2022,04,28,10,26,941.99
2022,04,28,10,27,941.99
2022,04,28,10,28,941.99
2022,04,28,10,29,941.99
2022,04,28,10,30,941.99
2022,04,28,10,31,941.99
2022,04,28,10,32,941.99
2022,04,28,10,33,941.99
2022,04,28,10,34,941.99
2022,04,28,10,35,941.99
2022,04,28,10,36,941.99
2022,04,28,10,37,941.99
2022,04,28,10,38,941.99
2022,04,28,10,39,941.99
2022,04,28,10,40,941.99
2022,04,28,10,41,941.99
2022,04,28,10,42,941.99
2022,04,28,10,43,941.99
2022,04,28,10,44,941.99
2022,04,28,10,45,941.99
2022,04,28,10,46,941.99
2022,04,28,10,47,941.99
2022,04,28,10,48,941.99
2022,04,28,10,49,941.99
2022,04,28,10,50,941.99
2022,04,28,10,51,941.99
2022,04,28,10,52,941.99
2022,04,28,10,53,941.99
2022,04,28,10,54,941.99
2022,04,28,10,55,941.99
2022,04,28,10,56,941.99
2022,04,28,10,57,941.99
2022,04,28,10,58,941.99
2022,04,28,10,59,941.99
2022,04,28,11,00,941.99
2022,04,28,11,01,941.99
2022,04,28,11,02,941.99
2022,04,28,11,03,941.99
2022,04,28,11,04,941.99
2022,04,28,11,05,941.99
2022,04,28,11,06,941.99
2022,04,28,11,07,941.99
2022,04,28,11,08,941.99
2022,04,28,11,09,941.99
2022,04,28,11,10,941.99
2022,04,28,11,11,941.99
2022,04,28,11,12,941.99
2022,04,28,11,13,941.99
2022,04,28,11,14,941.99
2022,04,28,11,15,941.99
2022,04,28,11,16,941.99
2022,04,28,11,17,941.99
2022,04,28,11,18,941.99
2022,04,28,11,19,941.99
2022,04,28,11,20,941.99
2022,04,28,11,21,941.99
2022,04,28,11,22,941.99
2022,04,28,11,23,941.99
2022,04,28,11,24,941.99
2022,04,28,11,25,941.99
2022,04,28,11,26,941.99
2022,04,28,11,27,941.99
2022,04,28,11,28,941.99
2022,04,28,11,29,941.99
2022,04,28,11,30,941.99
2022,04,28,11,31,941.99
2022,04,28,11,32,941.99
2022,04,28,11,33,941.99
2022,04,28,11,34,941.99
2022,04,28,11,35,941.99
2022,04,28,21,48,913.58
2022,04,28,21,49,913.58
2022,04,28,21,50,913.58
2022,04,28,21,51,922.25
2022,04,28,21,52,924.42
2022,04,28,21,53,924.42
2022,04,28,21,54,924.42
2022,04,28,21,55,924.42
2022,04,28,21,56,926.10
2022,04,28,21,57,926.52
2022,04,28,21,58,926.52
2022,04,28,21,59,926.52
2022,04,28,22,00,926.52
2022,04,28,22,01,926.52
2022,04,28,22,02,926.52
2022,04,28,22,03,924.51
2022,04,28,22,04,924.01
2022,04,28,22,05,924.01
2022,04,28,22,06,924.01
2022,04,28,22,07,924.01
2022,04,28,22,08,924.01
2022,04,28,22,09,924.01
2022,04,28,22,10,924.01
2022,04,28,22,11,924.01
2022,04,28,22,12,924.01
2022,04,28,22,13,924.01
2022,04,28,22,14,924.01
2022,04,28,22,15,924.01
2022,04,28,22,16,924.01
2022,04,28,22,17,924.01
2022,04,28,22,18,924.01
2022,04,28,22,19,924.01
2022,04,28,22,20,944.47
2022,04,28,22,21,949.92
2022,04,28,22,22,949.92
2022,04,28,22,23,949.92
2022,04,28,22,24,949.92
2022,04,28,22,25,949.92
2022,04,28,22,26,949.92
2022,04,28,22,27,949.92
2022,04,28,22,28,949.92
2022,04,28,22,29,949.92
2022,04,28,22,30,949.92
2022,04,28,22,31,949.92
2022,04,28,22,32,949.92
2022,04,28,22,33,949.92
2022,04,28,22,34,949.92
2022,04,28,22,35,949.92
2022,04,28,22,36,949.92
2022,04,28,22,37,949.92
2022,04,28,22,38,949.92
2022,04,28,22,39,949.92
2022,04,28,22,40,949.92
2022,04,28,22,41,949.92
2022,04,28,22,42,949.92
2022,04,28,22,43,949.92
2022,04,28,22,44,949.92
2022,04,28,22,45,949.92
2022,04,28,22,46,949.92
2022,04,28,22,47,949.92
2022,04,28,22,48,949.92
2022,04,28,22,49,949.92
2022,04,28,22,50,949.92
2022,04,28,22,51,949.92
2022,04,28,22,52,949.92
2022,04,28,22,53,949.92
2022,04,28,22,54,949.92
2022,04,28,22,55,976.00
2022,04,28,22,56,984.69
2022,04,28,22,57,984.69
2022,04,28,22,58,985.40
2022,04,28,22,59,985.64
2022,04,28,23,00,985.64
2022,04,28,23,01,985.64
2022,04,28,23,02,985.87
2022,04,28,23,03,985.95
2022,04,28,23,04,985.95
2022,04,28,23,05,985.95
2022,04,28,23,06,985.95
2022,04,28,23,07,985.95
2022,04,28,23,08,985.95
2022,04,28,23,09,985.95
2022,04,28,23,10,985.95
2022,04,28,23,11,985.95
2022,04,28,23,12,985.95
2022,04,28,23,13,985.95
2022,04,28,23,14,985.95
2022,04,28,23,15,985.95
2022,04,28,23,16,985.95
2022,04,28,23,17,985.95
2022,04,28,23,18,985.95
2022,04,28,23,19,985.95
2022,04,28,23,20,985.95
2022,04,28,23,21,985.95
2022,04,28,23,22,985.95
2022,04,28,23,23,985.95
2022,04,28,23,24,991.46
2022,04,28,23,25,993.30
2022,04,28,23,26,993.30
2022,04,28,23,27,993.30
2022,04,28,23,28,993.30
2022,04,28,23,29,993.30
2022,04,28,23,30,993.30
2022,04,28,23,31,993.30
2022,04,28,23,32,993.30
2022,04,28,23,33,993.30
2022,04,28,23,34,993.30
2022,04,28,23,35,993.30
2022,04,28,23,36,993.30
2022,04,28,23,37,993.30
2022,04,28,23,38,993.30
2022,04,28,23,39,993.30
2022,04,28,23,40,993.30
2022,04,28,23,41,993.30
2022,04,28,23,42,993.30
2022,04,28,23,43,975.21
2022,04,28,23,44,969.56
2022,04,28,23,45,969.56
2022,04,28,23,46,969.56
2022,04,28,23,47,971.82
2022,04,28,23,48,972.26
2022,04,28,23,49,972.16
2022,04,28,23,50,970.39
2022,04,28,23,51,969.76
2022,04,28,23,52,968.24
2022,04,28,23,53,967.73
2022,04,28,23,54,967.73
2022,04,28,23,55,967.73
2022,04,28,23,56,967.73
2022,04,28,23,57,967.73
2022,04,28,23,58,967.73
2022,04,28,23,59,967.73
